Weather in Zholkva

Ukraine / Lviv District     50°03′17″N   23°58′35″E
temp.,
°C
wind,
m/s
gust,
m/s
humid.,
%
clouds,
%
prec.,
mm/h
press.,
hPa
HPBL,
m
13 june, sun
sun1300:00+15w41096100 1.6 1009394
03:00+14nw101694100 9.1 10081079
06:00+12nw61194100 5.4 1009817
09:00+12nw711830 5.7 10121106
12:00+15nw7106674 0.3 10131632
15:00+16nw9106514 1.4 10141554
18:00+12nw71388100 1.0 10151073
21:00+12nw81493100 3.1 1015988
14 june, mon
mon1400:00+11nw61393100 1.7 1016804
03:00+10nw6129399 2.5 1017582
06:00+9nw61293100 0.1 1018501
09:00+10nw6985100 0.1 1019522
12:00+10nnw4986100 0.2 1020697
15:00+14nnw5868100 0.2 10191034
18:00+13n5879100 0.1 1019702
21:00+12nw2580100 0.1 1019190
15 june, tue
tue1500:00+9nw229223 0.0 102017
03:00+10nnw2490100 0.0 1020111
06:00+10nnw2488100 0.0 1020116
09:00+15nnw23750 0.0 1021450
12:00+18n336322 0.0 10201213
15:00+20n3357100 0.0 10191453
18:00+20nnw3360100 0.0 10191289
21:00+16nw2276100 0.0 101811
16 june, wed
wed1600:00+13wnw228099 0.0 101911
03:00+12w118570 0.0 101911
06:00+13wnw118281 0.0 101912
09:00+17nnw227382 0.0 1019307
12:00+21n226572 0.0 10191014
15:00+21nnw337156 1.1 1019953
18:00+20ne458118 2.8 1019785
21:00+17ene25915 3.4 102087
17 june, thu
thu1700:00+14ne22920 0.0 102133
03:00+12ne12925 0.0 102213
06:00+11ne228926 0.0 102222
09:00+16ene237977 0.0 1023283
12:00+21ene336039 0.0 1023989
15:00+22ene33555 0.0 10221448
18:00+22ene556716 0.0 10221136
21:00+17ene2280100 0.0 102219